setstats

Otina's Adventures

Otina's Adventures

Trip reports and photos from hiking, climbing, skiing
and mountaineering adventures in Colorado, Alaska, NY and beyond.

Peak Ski Lines

Ski pages: Resort (graph) | BC (graph) | BC ski overall | 14er Ski project map | Ski Mountaineering map | Sortable Peak Ski List


1. Sort by: Peak Name | D Rating | Mileage | Elevation Gain | Number of Peaks | Date

All Ranges | Front | Gore | Mosquito | Tenmile | Sawatch | Sangre de Cristo | Elk | San Juan
Go Back to Full View

Sorted by Date with all Ranges and Peaks

2. Filter by: 14er | 13er | Other

December | January | February | March | April | May | June | July

Colorado | Wyoming | New Mexico | Utah | Nevada | Arizona | California | Montana

Low to High Peaks 14er? Rating Map Route Mileage Elevation Solo Camp # of P Range Date 14ers TR
1Quandary (attempt)14erD3 East Ridge6.22887 Tenmile 02/04/2009
2Mt Toll12erD7 SE Face102500 Front 06/13/2009 > TR/PDF
3Mt Elbert (attempt)14erD3 East Ridge8.772953 Sawatch 01/08/2010
4Uncompahgre Peak (ski attempt)14erD7 SE Face15.625022bp San Juan 01/16/2010 > TR/PDF
5Meadow Mountain11erD2 St Vrain trail6.312927solo Front 01/22/2010
6Mt Bierstadt14erD5 West Face10.73535 Front 02/26/2010 > TR/PDF
7James Peak13erD2 East Face7.672932solo Front 03/05/2010 > TR/PDF
8Horseshoe Mountain A13erD2 East Ridge9.653032 Mosquito 04/09/2010
9West Pearl Mountain13erD4 North Face6.473562hut Elk 04/23/2010 > TR/PDF
10Castle Peak (ski attempt)14er North ridge9.673128hut Elk 04/24/2010 > TR/PDF
11Mt Harvard14erD6 South Face13.54600bp Sawatch 05/15/2010 > TR/PDF
12Quandary (attempt)14erD3 East Ridge4.351984solo Tenmile 01/14/2011
13Mt Sherman14erD2 South Face8.453063 Mosquito 03/11/2011 > TR/PDF
14Mt Harvard14erD6 South Ridge22.559251bp Sawatch 03/18/2011 > TR/PDF
15Mt Columbia14erD4 SW Gully22.559251solobp Sawatch 03/19/2011 > TR/PDF
16Mt Guyot13erD6 North Face7.323019solo Front 04/01/2011
17Avalanche Peak (attempt)12er 20.354031hut Sawatch 04/08/2011
18Missouri Mtn14erD8 C Couloir8.94321 Sawatch 05/06/2011 > TR
19Mt Lincoln14erD6 Amphitheater53393solo Mosquito 05/13/2011 > TR/PDF
20Mt Shavano14erD3 Angel7.924483 Sawatch 05/20/2011 > TR/PDF
21Mt Evans14erD8 North Face5.11565 Front 06/03/2011 > TR/PDF
22Mt Democrat14erD6 Emma Lake Chutes5.92774solo Mosquito 06/10/2011 > TR/PDF
23Torreys Peak14erD8 Tuning Fork84021 Front 06/17/2011 > TR/PDF
24Crystal Peak13erD5 East Face7.633458 Tenmile 03/23/2012 > TR/PDF
25Torreys Peak14erD12 Dead Dog11.454393 Front 03/30/2012 > TR/PDF
26Mt Hope13erD13 Hopeful Couloir7.24848 Sawatch 04/06/2012
27Mt Glory10erD4 West ridge3.551665 Teton 03/14/2013
28Prospector Mtn11erD10 Banana Couloir13.96135 Teton 03/15/2013
29Jacque Peak13erD4 SE Face5.432074solo Gore 03/29/2013
30Peak 913erD4 South Face9.044684solo2 Tenmile 03/30/2013
31Peak 1013erD7 4th of July Bowl9.044684solo2 Tenmile 03/30/2013
32Mt Tukuhnikivatz12erD9 SE Face11.24336solo La Sals, Utah 04/15/2013 > TR/PDF
33Peak 612erD4 East Face5.521405 Tenmile 04/20/2013
34American Peak13erD9 East Face14.4548472 San Juan 04/25/2013 > TR/PDF
35Handies Peak14erD5 West Gully14.454847solo2 San Juan 04/25/2013 > TR/PDF
36Redcloud Peak14erD5 North face10.375072 San Juan 04/26/2013 > TR/PDF
37Sunshine Peak14erD7 SE Face10.375072 San Juan 04/26/2013 > TR/PDF
38San Luis Peak14erD8 West Yawner Gully11.925970solo San Juan 04/27/2013 > TR/PDF
39Little Bear Peak14erD15 Hourglass Couloir6.763549bp Sangre de Cristo 05/02/2013 > TR
40Wetterhorn Peak14erD12 East Face7.533790 San Juan 05/03/2013 > TR/PDF
41Mt Sneffels14erD13 Birthday Chutes5.462975 San Juan 05/04/2013 > TR/PDF
42Mt Oxford14erD5 West Face10.726391solo Sawatch 05/10/2013 > TR/PDF
43Mt Belford14erD6,5 East and North face10.726391solo Sawatch 05/10/2013 > TR/PDF
44Mt Bross14erD3 S Gully10.513673solo Mosquito 05/11/2013 > TR/PDF
45Mt Cameron14erD5 South Face10.513673solo Mosquito 05/11/2013 > TR/PDF
46Kit Carson14erD13 OB Couloir4.552900bp Sangre de Cristo 05/16/2013 > TR/PDF
47Challenger Point14erD13 Kirk Couloir8.232572solobp Sangre de Cristo 05/17/2013 > TR/PDF
48Humboldt14erD5 East Gully7.434277solo Sangre de Cristo 05/18/2013 > TR/PDF
49Mt Elbert14erD6 Box Creek Chutes7.833997solo Sawatch 05/23/2013 > TR/PDF
50Mt Evans14erD8 North Face3.731517 Front 05/24/2013 > TR/PDF
51Blarney (13,500)13erD7 East Face4.7124102 Sawatch 05/25/2013 > TR/PDF
52Twining13erD8 NW Gully4.7124102 Sawatch 05/25/2013 > TR/PDF
53La Plata Peak14erD11 North Face8.794597 Sawatch 05/26/2013 > TR/PDF
54Mt Yale14erD5 NE Face10.424801solo Sawatch 05/30/2013 > TR/PDF
55Thunder Pyramid13erD10 White Gully11.624724solo Elk 05/31/2013 > TR/PDF
56Lackawanna13erD3 South Gully3.833417solo Sawatch 06/01/2013 > TR/PDF
57Grays Peak14erD12 Lost Rat Couloir8.083384solo Front 06/06/2013 > TR/PDF
58Mt Massive14erD6 East Face and SW Face7.414533solo Sawatch 06/07/2013 > TR/PDF
59Golden Bear13erD3 NE Face7.132397solo Front 06/08/2013 > TR/PDF
60Bald Mtn A13erD6 NE Gully8.853230 Front 06/14/2013 > TR/PDF
61Clinton Peak13erD8 E Gully9.973249solo Mosquito 06/15/2013 > TR/PDF
62St Vrain Mtn12erD2 E Face9.053581 Front 01/24/2014
63Ruby Mtn13erD4 E Face9.853427solo Front 01/25/2014 > TR/PDF
64Mt Elbert14erD3 East Ridge11.554861 Sawatch 03/15/2014
65Homestake Peak13erD3 E Ridge12.33170 Sawatch 03/22/2014
66Mt Lindsey (attempt)14er 184439 Sangre de Cristo 04/03/2014
67Culebra Peak14erD3 North Ridge13.835477 Sangre de Cristo 04/04/2014
68Ellingwood Pt14erD8 South Face9.763273bp Sangre de Cristo 04/11/2014 > TR/PDF
69Blanca Peak14erD16 NW Face9.763273solobp Sangre de Cristo 04/11/2014 > TR/PDF
70Mt Antero14erD9 SW Face10.634782 Sawatch 04/18/2014 > TR/PDF
71Uncompahgre Peak14erD7 SE Face14.314980 San Juan 04/19/2014 > TR/PDF
72The Citadel13erD8 Snoopys Backside8.692775 Front 04/25/2014 > TR/PDF
73Mt Lindsey14erD5 North Couloir13.885303solo Sangre de Cristo 05/01/2014 > TR
74Mt Helen13erD3 East Face5.432801 Tenmile 05/02/2014 > TR
75Atlantic Peak (attempt)13er Tradewinds Couloir10.362805 Tenmile 05/03/2014 > TR
76Tabeguache Peak14erD5 North Gully10.645095solobp Sawatch 05/09/2014 > TR/PDF
77Mt White13erD7 South Gully7.952437solobp Sawatch 05/10/2014 > TR/PDF
78Brokenhand Peak13erD15 Broken Dogleg13.862292 Sangre de Cristo 05/16/2014 > TR/PDF
79Crestone Peak14erD14 Red Gully13.862292 Sangre de Cristo 05/16/2014 > TR/PDF
80Mt Princeton14erD6 SE Face6.873870solo Sawatch 05/17/2014 > TR/PDF
81Mountain Boy13erD9 East Face5.272451 Sawatch 05/23/2014 > TR/PDF
82Drift Peak13erD13 Northeast Face6.653044 Tenmile 05/24/2014 > TR/PDF
83Grizzly Peak A13erD10 Grizzly Chute11.435458 Sawatch 05/25/2014 > TR/PDF
84North Maroon14erD15 Stammberger, N Face8.84566 Elk 05/27/2014 > TR/PDF
8512,85112erD9 East Face5.4529013 Sawatch 05/30/2014
86West Geissler13erD8 East Face5.4529013 Sawatch 05/30/2014
87East Geissler13erD7 East Face5.4529013 Sawatch 05/30/2014
88West Geissler13erD13 SE Couloir4.8824552 Sawatch 05/31/2014
89East Geissler13erD7 East Face4.8824552 Sawatch 05/31/2014
90Maroon Peak14erD15 SW Couloir5.144760 Elk 06/01/2014 > TR/PDF
91Dickers Peck13erD7 Navajo Glacier9.812845 Front 10/12/2014 > TR/PDF
92Mosquito Peak13erD4 SE Ridge9.122974 Mosquito 12/12/2014 > TR/PDF
93Pt 13,510B13erD4 East Face5.422415 San Juan 12/27/2014
94McMillan12erD3 West Face4.541714 San Juan 01/02/2015
95Galena Mountain12erD3 West Face8.42850 Sawatch 01/09/2015
96Dyer Peak13erD4 East Face9.672908solo Mosquito 01/31/2015
97Red Mountain C13erD4 East Face8.272900solo Front 03/06/2015
98South Boulder Peak8erD5 West Ridge6.52285 Front 03/06/2015
99Fletcher Mountain13erD7 Southeast Face9.33026 Tenmile 03/20/2015 > TR/PDF
100Huron Peak14erD15 East Face17.614530 Sawatch 03/22/2015 > TR/PDF
101Bald Mountain13erD9 West Face10.883354 Front 03/27/2015 > TR/PDF
102Longs Peak14erD15 Keplinger Couloir16.045900solo Front 03/28/2015 > TR/PDF
103Mt Wilson14erD15 Boxcar Couloir11.185110 San Juan 04/02/2015 > TR/PDF
104Pt 13,30013erD7 South Face2.962603 San Juan 04/03/2015 > TR/PDF
105Pikes Peak14erD5 East Face10.373158 Front 04/04/2015 > TR/PDF
106Sayres Benchmark13erD9 Grand Central Couloir10.393816 Sawatch 04/10/2015 > TR/PDF
107Pt 13,460 (attempt)13er 4.58920solo Sawatch 04/11/2015
108Geneva Peak13erD7 West Face72702 Front 04/24/2015 > TR/PDF
109Mt Evans B13erD8 East Face Chutes6.472375 Mosquito 05/01/2015 > TR/PDF
110London Mountain13erD9 Blue Crystal Couloir4.662182 Mosquito 05/02/2015 > TR/PDF
111Mt Cameron14erD4 East Face6.663004 Mosquito 05/08/2015 > TR/PDF
112Red Mountain C13erD3 North Ridge7.762928 Front 05/15/2015 > TR/PDF
113South Bross14erD2 Dolly Varden9.243380solo Mosquito 05/15/2015 > TR/PDF
114Square Top Mountain A13erD4 East Ridge6.782574 Front 05/16/2015 > TR/PDF
115Mt Bierstadt14erD5 west face83271 Front 05/20/2015 > TR/PDF
116Mt Silverheels (attempt)13er NE Ridge42132 Front 05/22/2015 > TR/PDF
117Mt Lindsey14erD5 North Gully12.1564692 Sangre de Cristo 05/24/2015
118Huerfano13erD4 South Face12.1564692 Sangre de Cristo 05/24/2015 > TR/PDF
119Mt Yale14erD8 West Face6.184224 Sawatch 05/29/2015 > TR/PDF
120Turner Peak13erD10 7 SE Couloir, West Face3.361905 Sawatch 05/30/2015 > TR
121Crestone Needle14erD16 East Couloir10.434398 Sangre de Cristo 06/03/2015 > TR/PDF
122Mt Sherman14erD3 East Face5.427792 Mosquito 06/06/2015 > TR/PDF
123White Ridge13erD7 South Gully5.427792 Mosquito 06/06/2015 > TR/PDF
124Castle Peak14erD7 North Couloir9.94633 Elk 06/12/2015 > TR/PDF
125Conundrum Peak14erD14 Conundrum Couloir9.94633 Elk 06/12/2015 > TR/PDF
126Pikes Peak14erD11 Railroad Couloir1.882001 Front 06/13/2015 > TR/PDF
127Snowmass Mountain14erD15 West Gully5.753681bp Elk 06/17/2015 > TR/PDF
128Hagerman13erD10 South Gully9.375288bp Elk 06/18/2015 > TR/PDF
129Alberta Peak11erD5 North Face1.161027solo San Juan 12/25/2015
130Wheeler Peak13erD7 West Face7.83047 Sangre de Cristo, NM 03/03/2016 > TR/PDF
131Peak 412erD7 Gasoline Alley4.23144 Tenmile 03/09/2016
132Mt Silverheels13erD5 South Face10.974262 Front 04/06/2016 > TR/PDF
133West Partner13er 11.24692 Gore 04/13/2016 > TR/PDF
134Granite Chief9er East Face Chute0.64817solo Lake Tahoe, CA 04/16/2016
135Wheeler Peak13erD4 North Ridge13.95553solo Nevada 04/22/2016
136Window Peak13erD4 Southeast Face15.514326solobp San Juan 05/03/2016 > TR/PDF
137Pt 13,27813erD7 Northeast Face11.882587bp2 San Juan 05/04/2016 > TR/PDF
138Rio Grande Pyramid13erD7 Northeast Face11.882587bp2 San Juan 05/04/2016 > TR/PDF
139Phoenix Peak13erD4 West Face12.274412 San Juan 05/05/2016 > TR/PDF
140Mt Aetna13erD5 Grand Couloir8.134000 Sawatch 05/11/2016 > TR/PDF
141Pt 13,46013erD5 North Couloir9.733993solo Sawatch 05/12/2016 > TR/PDF
142Bull Hill13erD4 Southeast Face7.53786 Sawatch 05/13/2016 > TR/PDF
143Twin Peaks A13erD5 East Face11.144888 Sangre de Cristo 05/18/2016 > TR/PDF
144Mt Adams13erD10 Northwest Face13.225168 Sangre de Cristo 05/19/2016 > TR/PDF
145Horseshoe Mountain A13erD7 Boudoir Couloir9.213060solo Mosquito 05/20/2016 > TR/PDF
146Hagar Mountain13erD7 Southeast Face7.362704solo Front 05/24/2016
147Mt of the Holy Cross14erD11 Cross Couloir6.293366solobp Sawatch 06/02/2016 > TR/PDF
148Pt 13,24813erD9 2 West Gully, N and S Ridge6.293366solobp2 Sawatch 06/02/2016 > TR/PDF
149Pt 13,24813erD2 N Ridge, S Ridge, E Ridge17.162531solobp2 Sawatch 06/03/2016 > TR/PDF
150Holy Cross Ridge13erD9 North Couloir West17.162531solobp2 Sawatch 06/03/2016 > TR/PDF
151Fletcher Mountain13erD7 West face central6.332882solo Tenmile 06/15/2016
152Peak C13erD11 SW Face West Couloir12.984396 Gore 06/16/2016 > TR/PDF
153Mt Cumulus12erD4 East Face13.034094solo Front 07/08/2016 > TR/PDF
154Mt Helen13erD3 East Face5.973275 Tenmile 02/02/2017
155Pennsylvania Mtn13erD3 East Face5.031307 Mosquito 02/04/2017
156Buffalo Mtn12erD8 Silver Couloir6.963463 Gore 02/16/2017
157LackawannaD7 South Gully 6.393633 Sawatch 03/15/2017 > TR/PDF
158Pt 13,37413erD6 East Face15.524927solo Sawatch 03/16/2017 > TR/PDF
159Humphreys Peak12erD5 West Face Chutes73232 Arizona 03/18/2017 > TR/PDF
160Clover Mountain12erD5 Southeast face8.523192 Sawatch 03/19/2017 > TR/PDF
161Outpost Peak12erD7 Southeast Chute10.595356 Gore 03/29/2017
162Peak P12erD9 West Face Couloir13.646039 Gore 04/06/2017
163Cathedral Peak13erD16 Southeast Couloir10.834500 Elk 04/12/2017 > TR/PDF
164Mt Buckskin13erD5 North Face4.732341solo Mosquito 04/13/2017 > TR/PDF
165Cronin Peak13erD10 Northeast Face11.644433 Sawatch 04/15/2017 > TR/PDF
166Atlantic Peak13erD9 V Couloir11.413327 Tenmile 04/22/2017 > TR/PDF
167Uneva Peak12erD4 West Face6.431954 Gore 04/25/2017
168Red Mountain C13erD3 North Ridge8.062930solo Front 04/26/2017
169Horseshoe Mountain A (attempt)13er Boudoir Couloir8.191971 Mosquito 04/29/2017
170Mt Tweto13erD4 South Ridge8.942558 Mosquito 05/04/2017
171Jupiter Mountain13erD7 Europa Couloir104899bp2 San Juan 05/11/2017 > TR/PDF
172Mt Eolus14erD9 East Couloir104899bp2 San Juan 05/12/2017 > TR/PDF
173Windom Peak14erD10 North Face Face9.74030bp2 San Juan 05/13/2017 > TR/PDF
174Sunlight Peak14erD12 South Face9.74030bp2 San Juan 05/13/2017 > TR/PDF
175Mt Kennedy13erD8 NE Couloir3.72485bp San Juan 05/14/2017 > TR/PDF
176Mt Sheridan13erD5 SE Face4.292133solo Mosquito 05/31/2017 > TR/PDF
177Mt Champion13erD7 E Couloir6.042861 Sawatch 06/01/2017 > TR/PDF
178Kelso Mtn13erD5 NE Couloir3.272416solo Front 06/07/2017 > TR/PDF
179Mt Sniktau13erD6 East Face5.082942solo Front 06/08/2017 > TR/PDF
180Northstar Mtn13erD15 Polaris Couloir5.762305 Tenmile 06/10/2017 > TR/PDF
181Taylor Peak A13erD5 NE Face8.14019solo2 Elk 06/13/2017 > TR/PDF
182Star Peak13erD8 NE Face8.14019solo2 Elk 06/13/2017 > TR/PDF
183Mt Oklahoma13erD5 East Face7.873290solo Sawatch 06/21/2017 > TR/PDF
184Petroleum Peak13erD7 East Face5.622251solo Sawatch 06/28/2017 > TR/PDF
185Anderson Peak13erD10 Anderson Couloir4.862472solo Sawatch 06/28/2017 > TR/PDF
186Mt Glory10erD5 South gully (west)3.732276solo Teton 01/28/2018
187Golden Bear13erD5 Southeast Face6.882544solo Front 05/11/2018 > TR/PDF
188Cupid Peak13erD4 Southeast Face5.272232solo Front 05/21/2018 > TR/PDF
189Pettingell Peak13erD4 Southeast Face93288solo Front 05/24/2018 > TR/PDF
190East Geissler13erD7 South Face4.631815solo Sawatch 05/25/2018 > TR/PDF
191Hassell Peak13erD6 Northeast Face7.613049solo Front 05/26/2018 > TR/PDF
192Mt Eva13erD5 Southeast Face6.362508solo Front 05/31/2018 > TR/PDF
193Whale Peak13erD5 East Face6.472754 Front 06/01/2018 > TR/PDF
194Red Mountain C13erD4 East Face8.252919solo Front 03/26/2019
195Mt Helen13erD3 East Face6.12792 Tenmile 04/17/2019
196Santa Fe Peak13erD5 Couloir5.872670 Front 04/18/2019 > TR/PDF
197Red Peak B13erD5 SE Face11.84381solo Gore 04/23/2019 > TR/PDF
198Hoosier Ridge13erD6 NE Couloir9.93214solo Front 04/25/2019 > TR/PDF
199Hassell Peak13erD6 East Ridge8.183035 Front 05/01/2019 > TR/PDF
200Mt Guyot13erD6 Swan Dive3.831681 Front 05/03/2019 > TR/PDF
201Mt Bross14erD3 S Gully5.842715 Mosquito 05/10/2019
202Granite Peak (attempt)12er SW Couloir28.34747bp Absaroka, MT 05/13/2019
203Top Notch Peak10erD6 North Bowl4.581976 Yellowstone WY 05/15/2019
204Two Ocean Mountain (attempt)10erD6 SW Couloir3.031173 Wind River WY 05/16/2019
205West Sheridan12erD7 NE Couloir6.72293 Mosquito 05/18/2019
206Gladstone Ridge13erD4 North Bowl9.393339solo Sawatch 05/23/2019 > TR
207Taylor Mountain A13erD4 East Face/Ridge8.24106solo Sawatch 05/24/2019 > TR
208Taylor Mountain A13erD5 East Face6.673655 Sawatch 05/25/2019 > TR
209Mt Silverheels13erD5 North west chute8.983642 Front 05/30/2019 > TR
210Pt 13,00113erD8 SW Face7.062715solo Sawatch 05/31/2019 > TR
211Mt Democrat14erD9 North Face7.722552 Mosquito 06/07/2019
212Monumental Peak13erD5 East Face9.393097 Sawatch 06/10/2019 > TR
213Chipeta13erD5 N Ridge to E Face10.613844solo Sawatch 06/11/2019 > TR
214Brumley13erD4 West chute3.842969 Sawatch 06/14/2019 > TR
215Mt Parnasus13erD7 North Face, Drainpipe6.463360solo Front 06/19/2019 > TR
216K 4913erD9 East Face9.083146 Sawatch 06/25/2019 > TR
217Deer Mountain13erD10 North Face10.393603solo Sawatch 06/26/2019 > TR
218Torreys Peak14erD8 Tuning Fork4.983476solo Front 07/09/2019
219Golden Bear13erD5 Southeast Face7.672100solo Front 03/17/2020
220Meadow Mountain11erD2 Southeast Face6.792895solo Front 03/31/2020
221St Vrain Mtn12erD2 East Face9.23604solo Front 04/02/2020
222Sugarloaf Mountain8erD4 South Face2.45550solo Front 04/17/2020
22310,58310erD2 East Face7.752436 Front 04/20/2020
224Pawnee Peak12erD3 South Face14.832998solo Front 04/21/2020
225London Mountain13erD9 Blue Crystal Couloir4.491896 Mosquito 05/02/2020
226Pacific Peak13erD7 Hawaii Couloir11.013696 Tenmile 05/05/2020
227Crystal Peak13erD5 East Face8.263483 Tenmile 05/11/2020
228Loveland Mountain13erD5 North Face4.522539solo Mosquito 05/12/2020
229Mt Democrat14erD6 Emma Lake Chutes6.692952 Mosquito 05/16/2020
230Pt 13,73613erD9 East Face14.043499solo Sawatch 05/20/2020
231Casco Peak13erD8 East Face9.773951 Sawatch 05/21/2020
232Mt Sheridan13erD5 East Face4.222115 Mosquito 05/22/2020
233Golden Bear13erD5 Southeast Face7.512746solo Front 06/03/2020
234Argentine Peak13erD9 Waldorf Bowl8.262808solo Front 06/07/2020
235Savage Peak (attempt)13er North Face9.862575solo Sawatch 06/09/2020
236Mt Toll12erD7 SE Face15.043219solo Front 06/23/2020
237Green Mountain8er West Ridge3.91087solo Front 03/15/2021
238Bierstadt14er West Face8.823250 Front 04/02/2021
239Pettingell13er SE Face8.933348 Front 04/07/2021
240Sullivan13er NW Gully5.892598 Front 04/17/2021
241Red Mtn C13er East Face8.212923 Front 04/19/2021
242Guyot13er NW Face8.063357 Front 04/20/2021
243Bard13er Shakespeare5.553879 Front 04/28/2021
244Colorado Mines12er West ridge4.591222solo Front 05/11/2021
245Star Peak13er NE Face11.633184 Elk 05/15/2021
246Golden Bear13er SE Face5.82189solo Front 05/19/2021
247Coon Hill12er East couloir3.531716solo Front 05/20/2021
248Mt Lady Washington13er N Ridge, East face9.434390 Front 05/23/2021
249Jenkins13er SW Face6.533098solo Sawatch 05/24/2021
250Golden Tops13er SE Couloir15.384305 Elk 05/25/2021
251Cassi13er NW Face15.384305 Elk 05/25/2021
252White Rock13er West Face11.024032 Elk 05/26/2021


Order of Operations: Chose sort by first, then filter. Ie if you want to see all the peaks in June, sorted by name: Sort by name, then month.

Things to add: backpack details, fix map section